Year,Month,Day,Hour,Minute,Value (Times are PST for temperature in C)
2008,08,13,00,00,16.40
2008,08,13,00,01,16.40
2008,08,13,00,02,16.40
2008,08,13,00,03,16.40
2008,08,13,00,04,16.40
2008,08,13,00,05,16.50
2008,08,13,00,06,16.60
2008,08,13,00,07,16.60
2008,08,13,00,08,16.60
2008,08,13,00,09,16.60
2008,08,13,00,10,16.60
2008,08,13,00,11,16.60
2008,08,13,00,12,16.60
2008,08,13,00,13,16.60
2008,08,13,00,14,16.60
2008,08,13,00,15,16.60
2008,08,13,00,16,16.60
2008,08,13,00,17,16.60
2008,08,13,00,18,16.60
2008,08,13,00,19,16.60
2008,08,13,00,20,16.60
2008,08,13,00,21,16.60
2008,08,13,00,22,16.60
2008,08,13,00,23,16.50
2008,08,13,00,24,16.40
2008,08,13,00,25,16.40
2008,08,13,00,26,16.40
2008,08,13,00,27,16.40
2008,08,13,00,28,16.40
2008,08,13,00,29,16.40
2008,08,13,00,30,16.40
2008,08,13,00,31,16.40
2008,08,13,00,32,16.40
2008,08,13,00,33,16.40
2008,08,13,00,34,16.40
2008,08,13,00,35,16.40
2008,08,13,00,36,16.60
2008,08,13,00,37,16.60
2008,08,13,00,38,16.60
2008,08,13,00,39,16.70
2008,08,13,00,40,16.70
2008,08,13,00,41,16.70
2008,08,13,00,42,16.70
2008,08,13,00,43,16.70
2008,08,13,00,44,16.70
2008,08,13,00,45,16.70
2008,08,13,00,46,16.70
2008,08,13,00,47,16.70
2008,08,13,00,48,16.70
2008,08,13,00,49,16.70
2008,08,13,00,50,16.60
2008,08,13,00,51,16.60
2008,08,13,00,52,16.60
2008,08,13,00,53,16.50
2008,08,13,00,54,16.40
2008,08,13,00,55,16.40
2008,08,13,00,56,16.40
2008,08,13,00,57,16.40
2008,08,13,00,58,16.40
2008,08,13,00,59,16.40
2008,08,13,01,00,16.30
2008,08,13,01,01,16.30
2008,08,13,01,02,16.30
2008,08,13,01,03,16.20
2008,08,13,01,04,16.20
2008,08,13,01,05,16.20
2008,08,13,01,06,16.10
2008,08,13,01,07,16.10
2008,08,13,01,08,16.00
2008,08,13,01,09,15.90
2008,08,13,01,10,15.80
2008,08,13,01,11,15.80
2008,08,13,01,12,15.80
2008,08,13,01,13,15.70
2008,08,13,01,14,15.70
2008,08,13,01,15,15.70
2008,08,13,01,16,15.70
2008,08,13,01,17,15.60
2008,08,13,01,18,15.60
2008,08,13,01,19,15.50
2008,08,13,01,20,15.50
2008,08,13,01,21,15.50
2008,08,13,01,22,15.50
2008,08,13,01,23,15.50
2008,08,13,01,24,15.50
2008,08,13,01,25,15.50
2008,08,13,01,26,15.50
2008,08,13,01,27,15.40
2008,08,13,01,28,15.40
2008,08,13,01,29,15.40
2008,08,13,01,30,15.40
2008,08,13,01,31,15.30
2008,08,13,01,32,15.30
2008,08,13,01,33,15.30
2008,08,13,01,34,15.30
2008,08,13,01,35,15.30
2008,08,13,01,36,15.20
2008,08,13,01,37,15.20
2008,08,13,01,38,15.20
2008,08,13,01,39,15.20
2008,08,13,01,40,15.20
2008,08,13,01,41,15.20
2008,08,13,01,42,15.20
2008,08,13,01,43,15.20
2008,08,13,01,44,15.20
2008,08,13,01,45,15.10
2008,08,13,01,46,15.10
2008,08,13,01,47,15.10
2008,08,13,01,48,15.10
2008,08,13,01,49,15.10
2008,08,13,01,50,15.10
2008,08,13,01,51,15.00
2008,08,13,01,52,15.00
2008,08,13,01,53,15.00
2008,08,13,01,54,15.00
2008,08,13,01,55,14.90
2008,08,13,01,56,14.90
2008,08,13,01,57,14.80
2008,08,13,01,58,14.80
2008,08,13,01,59,14.80
2008,08,13,02,00,14.80
2008,08,13,02,01,14.70
2008,08,13,02,02,14.70
2008,08,13,02,03,14.60
2008,08,13,02,04,14.60
2008,08,13,02,05,14.50
2008,08,13,02,06,14.50
2008,08,13,02,07,14.40
2008,08,13,02,08,14.30
2008,08,13,02,09,14.30
2008,08,13,02,10,14.20
2008,08,13,02,11,14.20
2008,08,13,02,12,14.20
2008,08,13,02,13,14.10
2008,08,13,02,14,14.10
2008,08,13,02,15,14.10
2008,08,13,02,16,14.00
2008,08,13,02,17,14.00
2008,08,13,02,18,13.90
2008,08,13,02,19,13.90
2008,08,13,02,20,13.90
2008,08,13,02,21,13.90
2008,08,13,02,22,13.90
2008,08,13,02,23,13.90
2008,08,13,02,24,13.90
2008,08,13,02,25,13.90
2008,08,13,02,26,13.90
2008,08,13,02,27,13.90
2008,08,13,02,28,13.90
2008,08,13,02,29,14.00
2008,08,13,02,30,14.00
2008,08,13,02,31,14.10
2008,08,13,02,32,14.20
2008,08,13,02,33,14.20
2008,08,13,02,34,14.20
2008,08,13,02,35,14.30
2008,08,13,02,36,14.40
2008,08,13,02,37,14.50
2008,08,13,02,38,14.50
2008,08,13,02,39,14.60
2008,08,13,02,40,14.60
2008,08,13,02,41,14.60
2008,08,13,02,42,14.60
2008,08,13,02,43,14.60
2008,08,13,02,44,14.60
2008,08,13,02,45,14.60
2008,08,13,02,46,14.70
2008,08,13,02,47,14.80
2008,08,13,02,48,14.80
2008,08,13,02,49,14.80
2008,08,13,02,50,14.80
2008,08,13,02,51,14.80
2008,08,13,02,52,14.80
2008,08,13,02,53,14.80
2008,08,13,02,54,14.80
2008,08,13,02,55,14.80
2008,08,13,02,56,14.80
2008,08,13,02,57,14.80
2008,08,13,02,58,14.80
2008,08,13,02,59,14.80
2008,08,13,03,00,14.80
2008,08,13,03,01,14.80
2008,08,13,03,02,14.80
2008,08,13,03,03,14.80
2008,08,13,03,04,14.80
2008,08,13,03,05,14.80
2008,08,13,03,06,14.80
2008,08,13,03,07,14.90
2008,08,13,03,08,14.90
2008,08,13,03,09,14.90
2008,08,13,03,10,14.90
2008,08,13,03,11,14.90
2008,08,13,03,12,14.90
2008,08,13,03,13,14.90
2008,08,13,03,14,14.90
2008,08,13,03,15,14.90
2008,08,13,03,16,14.90
2008,08,13,03,17,14.90
2008,08,13,03,18,14.90
2008,08,13,03,19,14.90
2008,08,13,03,20,14.90
2008,08,13,03,21,14.90
2008,08,13,03,22,14.90
2008,08,13,03,23,14.90
2008,08,13,03,24,14.90
2008,08,13,03,25,14.90
2008,08,13,03,26,14.90
2008,08,13,03,27,14.90
2008,08,13,03,28,14.90
2008,08,13,03,29,14.90
2008,08,13,03,30,14.90
2008,08,13,03,31,14.90
2008,08,13,03,32,14.90
2008,08,13,03,33,14.90
2008,08,13,03,34,14.90
2008,08,13,03,35,14.90
2008,08,13,03,36,14.90
2008,08,13,03,37,14.90
2008,08,13,03,38,14.90
2008,08,13,03,39,14.90
2008,08,13,03,40,14.80
2008,08,13,03,41,14.80
2008,08,13,03,42,14.80
2008,08,13,03,43,14.80
2008,08,13,03,44,14.80
2008,08,13,03,45,14.80
2008,08,13,03,46,14.80
2008,08,13,03,47,14.70
2008,08,13,03,48,14.70
2008,08,13,03,49,14.70
2008,08,13,03,50,14.60
2008,08,13,03,51,14.60
2008,08,13,03,52,14.60
2008,08,13,03,53,14.60
2008,08,13,03,54,14.50
2008,08,13,03,55,14.50
2008,08,13,03,56,14.50
2008,08,13,03,57,14.40
2008,08,13,03,58,14.40
2008,08,13,03,59,14.30
2008,08,13,04,00,14.20
2008,08,13,04,01,14.20
2008,08,13,04,02,14.10
2008,08,13,04,03,14.00
2008,08,13,04,04,14.00
2008,08,13,04,05,14.00
2008,08,13,04,06,14.00
2008,08,13,04,07,14.10
2008,08,13,04,08,14.10
2008,08,13,04,09,14.10
2008,08,13,04,10,14.10
2008,08,13,04,11,14.10
2008,08,13,04,12,14.10
2008,08,13,04,13,14.00
2008,08,13,04,14,14.00
2008,08,13,04,15,14.00
2008,08,13,04,16,13.90
2008,08,13,04,17,13.90
2008,08,13,04,18,13.90
2008,08,13,04,19,13.90
2008,08,13,04,20,13.80
2008,08,13,04,21,13.80
2008,08,13,04,22,13.90
2008,08,13,04,23,13.90
2008,08,13,04,24,13.90
2008,08,13,04,25,13.90
2008,08,13,04,26,13.90
2008,08,13,04,27,13.90
2008,08,13,04,28,13.90
2008,08,13,04,29,13.90
2008,08,13,04,30,13.90
2008,08,13,04,31,13.80
2008,08,13,04,32,13.80
2008,08,13,04,33,13.70
2008,08,13,04,34,13.70
2008,08,13,04,35,13.70
2008,08,13,04,36,13.70
2008,08,13,04,37,13.70
2008,08,13,04,38,13.60
2008,08,13,04,39,13.60
2008,08,13,04,40,13.60
2008,08,13,04,41,13.60
2008,08,13,04,42,13.60
2008,08,13,04,43,13.60
2008,08,13,04,44,13.60
2008,08,13,04,45,13.60
2008,08,13,04,46,13.60
2008,08,13,04,47,13.60
2008,08,13,04,48,13.60
2008,08,13,04,49,13.60
2008,08,13,04,50,13.70
2008,08,13,04,51,13.70
2008,08,13,04,52,13.70
2008,08,13,04,53,13.70
2008,08,13,04,54,13.70
2008,08,13,04,55,13.70
2008,08,13,04,56,13.70
2008,08,13,04,57,13.70
2008,08,13,04,58,13.70
2008,08,13,04,59,13.60
2008,08,13,05,00,13.60
2008,08,13,05,01,13.60
2008,08,13,05,02,13.60
2008,08,13,05,03,13.60
2008,08,13,05,04,13.60
2008,08,13,05,05,13.60
2008,08,13,05,06,13.50
2008,08,13,05,07,13.50
2008,08,13,05,08,13.50
2008,08,13,05,09,13.40
2008,08,13,05,10,13.40
2008,08,13,05,11,13.30
2008,08,13,05,12,13.30
2008,08,13,05,13,13.30
2008,08,13,05,14,13.30
2008,08,13,05,15,13.20
2008,08,13,05,16,13.20
2008,08,13,05,17,13.10
2008,08,13,05,18,13.10
2008,08,13,05,19,13.00
2008,08,13,05,20,13.10
2008,08,13,05,21,13.10
2008,08,13,05,22,13.10
2008,08,13,05,23,13.10
2008,08,13,05,24,13.10
2008,08,13,05,25,13.20
2008,08,13,05,26,13.20
2008,08,13,05,27,13.20
2008,08,13,05,28,13.30
2008,08,13,05,29,13.30
2008,08,13,05,30,13.30
2008,08,13,05,31,13.40
2008,08,13,05,32,13.40
2008,08,13,05,33,13.50
2008,08,13,05,34,13.50
2008,08,13,05,35,13.50
2008,08,13,05,36,13.50
2008,08,13,05,37,13.60
2008,08,13,05,38,13.60
2008,08,13,05,39,13.50
2008,08,13,05,40,13.60
2008,08,13,05,41,13.50
2008,08,13,05,42,13.50
2008,08,13,05,43,13.60
2008,08,13,05,44,13.60
2008,08,13,05,45,13.60
2008,08,13,05,46,13.60
2008,08,13,05,47,13.60
2008,08,13,05,48,13.60
2008,08,13,05,49,13.70
2008,08,13,05,50,13.70
2008,08,13,05,51,13.70
2008,08,13,05,52,13.70
2008,08,13,05,53,13.70
2008,08,13,05,54,13.70
2008,08,13,05,55,13.70
2008,08,13,05,56,13.70
2008,08,13,05,57,13.70
2008,08,13,05,58,13.70
2008,08,13,05,59,13.80
2008,08,13,06,00,13.80
2008,08,13,06,01,13.80
2008,08,13,06,02,13.90
2008,08,13,06,03,13.90
2008,08,13,06,04,13.90
2008,08,13,06,05,13.90
2008,08,13,06,06,13.90
2008,08,13,06,07,13.90
2008,08,13,06,08,13.90
2008,08,13,06,09,13.90
2008,08,13,06,10,13.90
2008,08,13,06,11,13.90
2008,08,13,06,12,13.90
2008,08,13,06,13,13.90
2008,08,13,06,14,13.90
2008,08,13,06,15,13.90
2008,08,13,06,16,13.90
2008,08,13,06,17,13.90
2008,08,13,06,18,13.90
2008,08,13,06,19,13.90
2008,08,13,06,20,13.90
2008,08,13,06,21,13.90
2008,08,13,06,22,13.90
2008,08,13,06,23,13.90
2008,08,13,06,24,13.90
2008,08,13,06,25,13.90
2008,08,13,06,26,13.90
2008,08,13,06,27,13.90
2008,08,13,06,28,14.00
2008,08,13,06,29,14.00
2008,08,13,06,30,14.00
2008,08,13,06,31,14.10
2008,08,13,06,32,14.10
2008,08,13,06,33,14.10
2008,08,13,06,34,14.10
2008,08,13,06,35,14.10
2008,08,13,06,36,14.20
2008,08,13,06,37,14.20
2008,08,13,06,38,14.20
2008,08,13,06,39,14.20
2008,08,13,06,40,14.20
2008,08,13,06,41,14.20
2008,08,13,06,42,14.20
2008,08,13,06,43,14.20
2008,08,13,06,44,14.20
2008,08,13,06,45,14.30
2008,08,13,06,46,14.30
2008,08,13,06,47,14.30
2008,08,13,06,48,14.30
2008,08,13,06,49,14.30
2008,08,13,06,50,14.30
2008,08,13,06,51,14.40
2008,08,13,06,52,14.40
2008,08,13,06,53,14.40
2008,08,13,06,54,14.40
2008,08,13,06,55,14.40
2008,08,13,06,56,14.40
2008,08,13,06,57,14.40
2008,08,13,06,58,14.40
2008,08,13,06,59,14.40
2008,08,13,07,00,14.50
2008,08,13,07,01,14.50
2008,08,13,07,02,14.50
2008,08,13,07,03,14.50
2008,08,13,07,04,14.60
2008,08,13,07,05,14.60
2008,08,13,07,06,14.60
2008,08,13,07,07,14.50
2008,08,13,07,08,14.50
2008,08,13,07,09,14.50
2008,08,13,07,10,14.50
2008,08,13,07,11,14.50
2008,08,13,07,12,14.50
2008,08,13,07,13,14.50
2008,08,13,07,14,14.50
2008,08,13,07,15,14.50
2008,08,13,07,16,14.50
2008,08,13,07,17,14.50
2008,08,13,07,18,14.50
2008,08,13,07,19,14.60
2008,08,13,07,20,14.60
2008,08,13,07,21,14.60
2008,08,13,07,22,14.70
2008,08,13,07,23,14.80
2008,08,13,07,24,14.80
2008,08,13,07,25,14.80
2008,08,13,07,26,14.90
2008,08,13,07,27,14.90
2008,08,13,07,28,14.90
2008,08,13,07,29,15.00
2008,08,13,07,30,15.00
2008,08,13,07,31,15.00
2008,08,13,07,32,15.00
2008,08,13,07,33,15.10
2008,08,13,07,34,15.10
2008,08,13,07,35,15.10
2008,08,13,07,36,15.20
2008,08,13,07,37,15.20
2008,08,13,07,38,15.20
2008,08,13,07,39,15.30
2008,08,13,07,40,15.30
2008,08,13,07,41,15.30
2008,08,13,07,42,15.30
2008,08,13,07,43,15.30
2008,08,13,07,44,15.30
2008,08,13,07,45,15.40
2008,08,13,07,46,15.40
2008,08,13,07,47,15.50
2008,08,13,07,48,15.50
2008,08,13,07,49,15.60
2008,08,13,07,50,15.60
2008,08,13,07,51,15.70
2008,08,13,07,52,15.70
2008,08,13,07,53,15.80
2008,08,13,07,54,15.80
2008,08,13,07,55,15.80
2008,08,13,07,56,15.90
2008,08,13,07,57,16.00
2008,08,13,07,58,16.10
2008,08,13,07,59,16.20
2008,08,13,08,00,16.30
2008,08,13,08,01,16.30
2008,08,13,08,02,16.40
2008,08,13,08,03,16.50
2008,08,13,08,04,16.60
2008,08,13,08,05,16.70
2008,08,13,08,06,16.70
2008,08,13,08,07,16.80
2008,08,13,08,08,16.80
2008,08,13,08,09,16.90
2008,08,13,08,10,16.90
2008,08,13,08,11,16.90
2008,08,13,08,12,17.00
2008,08,13,08,13,17.00
2008,08,13,08,14,17.10
2008,08,13,08,15,17.10
2008,08,13,08,16,17.20
2008,08,13,08,17,17.20
2008,08,13,08,18,17.20
2008,08,13,08,19,17.20
2008,08,13,08,20,17.30
2008,08,13,08,21,17.30
2008,08,13,08,22,17.30
2008,08,13,08,23,17.30
2008,08,13,08,24,17.30
2008,08,13,08,25,17.30
2008,08,13,08,26,17.30
2008,08,13,08,27,17.30
2008,08,13,08,28,17.40
2008,08,13,08,29,17.40
2008,08,13,08,30,17.40
2008,08,13,08,31,17.40
2008,08,13,08,32,17.50
2008,08,13,08,33,17.50
2008,08,13,08,34,17.50
2008,08,13,08,35,17.50
2008,08,13,08,36,17.60
2008,08,13,08,37,17.60
2008,08,13,08,38,17.60
2008,08,13,08,39,17.60
2008,08,13,08,40,17.70
2008,08,13,08,41,17.70
2008,08,13,08,42,17.80
2008,08,13,08,43,17.80
2008,08,13,08,44,17.90
2008,08,13,08,45,17.90
2008,08,13,08,46,17.90
2008,08,13,08,47,17.90
2008,08,13,08,48,17.90
2008,08,13,08,49,18.00
2008,08,13,08,50,18.10
2008,08,13,08,51,18.10
2008,08,13,08,52,18.20
2008,08,13,08,53,18.20
2008,08,13,08,54,18.20
2008,08,13,08,55,18.20
2008,08,13,08,56,18.20
2008,08,13,08,57,18.20
2008,08,13,08,58,18.30
2008,08,13,08,59,18.30
2008,08,13,09,00,18.30
2008,08,13,09,01,18.40
2008,08,13,09,02,18.40
2008,08,13,09,03,18.40
2008,08,13,09,04,18.40
2008,08,13,09,05,18.50
2008,08,13,09,06,18.50
2008,08,13,09,07,18.50
2008,08,13,09,08,18.50
2008,08,13,09,09,18.60
2008,08,13,09,10,18.60
2008,08,13,09,11,18.70
2008,08,13,09,12,18.70
2008,08,13,09,13,18.70
2008,08,13,09,14,18.70
2008,08,13,09,15,18.70
2008,08,13,09,16,18.70
2008,08,13,09,17,18.70
2008,08,13,09,18,18.70
2008,08,13,09,19,18.70
2008,08,13,09,20,18.80
2008,08,13,09,21,18.80
2008,08,13,09,22,18.80
2008,08,13,09,23,18.90
2008,08,13,09,24,18.90
2008,08,13,09,25,18.90
2008,08,13,09,26,18.90
2008,08,13,09,27,18.90
2008,08,13,09,28,18.90
2008,08,13,09,29,18.90
2008,08,13,09,30,19.00
2008,08,13,09,31,19.10
2008,08,13,09,32,19.10
2008,08,13,09,33,19.10
2008,08,13,09,34,19.10
2008,08,13,09,35,19.10
2008,08,13,09,36,19.20
2008,08,13,09,37,19.20
2008,08,13,09,38,19.20
2008,08,13,09,39,19.20
2008,08,13,09,40,19.20
2008,08,13,09,41,19.20
2008,08,13,09,42,19.20
2008,08,13,09,43,19.20
2008,08,13,09,44,19.20
2008,08,13,09,45,19.10
2008,08,13,09,46,19.10
2008,08,13,09,47,19.20
2008,08,13,09,48,19.20
2008,08,13,09,49,19.20
2008,08,13,09,50,19.30
2008,08,13,09,51,19.30
2008,08,13,09,52,19.40
2008,08,13,09,53,19.40
2008,08,13,09,54,19.40
2008,08,13,09,55,19.30
2008,08,13,09,56,19.30
2008,08,13,09,57,19.20
2008,08,13,09,58,19.20
2008,08,13,09,59,19.20
2008,08,13,10,00,19.20
2008,08,13,10,01,19.20
2008,08,13,10,02,19.20
2008,08,13,10,03,19.10
2008,08,13,10,04,19.10
2008,08,13,10,05,19.10
2008,08,13,10,06,19.10
2008,08,13,10,07,19.20
2008,08,13,10,08,19.30
2008,08,13,10,09,19.30
2008,08,13,10,10,19.40
2008,08,13,10,11,19.40
2008,08,13,10,12,19.50
2008,08,13,10,13,19.50
2008,08,13,10,14,19.60
2008,08,13,10,15,19.60
2008,08,13,10,16,19.60
2008,08,13,10,17,19.70
2008,08,13,10,18,19.80
2008,08,13,10,19,19.90
2008,08,13,10,20,19.90
2008,08,13,10,21,19.90
2008,08,13,10,22,20.10
2008,08,13,10,23,20.20
2008,08,13,10,24,20.20
2008,08,13,10,25,20.20
2008,08,13,10,26,20.20
2008,08,13,10,27,20.20
2008,08,13,10,28,20.20
2008,08,13,10,29,20.10
2008,08,13,10,30,20.10
2008,08,13,10,31,20.00
2008,08,13,10,32,19.90
2008,08,13,10,33,19.90
2008,08,13,10,34,19.90
2008,08,13,10,35,19.90
2008,08,13,10,36,19.90
2008,08,13,10,37,19.90
2008,08,13,10,38,19.90
2008,08,13,10,39,19.90
2008,08,13,10,40,19.90
2008,08,13,10,41,19.90
2008,08,13,10,42,19.90
2008,08,13,10,43,19.90
2008,08,13,10,44,20.00
2008,08,13,10,45,20.10
2008,08,13,10,46,20.10
2008,08,13,10,47,20.20
2008,08,13,10,48,20.20
2008,08,13,10,49,20.20
2008,08,13,10,50,20.20
2008,08,13,10,51,20.20
2008,08,13,10,52,20.20
2008,08,13,10,53,20.20
2008,08,13,10,54,20.20
2008,08,13,10,55,20.20
2008,08,13,10,56,20.20
2008,08,13,10,57,20.30
2008,08,13,10,58,20.30
2008,08,13,10,59,20.30
2008,08,13,11,00,20.40
2008,08,13,11,01,20.40
2008,08,13,11,02,20.40
2008,08,13,11,03,20.50
2008,08,13,11,04,20.50
2008,08,13,11,05,20.50
2008,08,13,11,06,20.40
2008,08,13,11,07,20.40
2008,08,13,11,08,20.50
2008,08,13,11,09,20.50
2008,08,13,11,10,20.50
2008,08,13,11,11,20.60
2008,08,13,11,12,20.60
2008,08,13,11,13,20.50
2008,08,13,11,14,20.50
2008,08,13,11,15,20.50
2008,08,13,11,16,20.60
2008,08,13,11,17,20.60
2008,08,13,11,18,20.60
2008,08,13,11,19,20.50
2008,08,13,11,20,20.50
2008,08,13,11,21,20.60
2008,08,13,11,22,20.60
2008,08,13,11,23,20.60
2008,08,13,11,24,20.60
2008,08,13,11,25,20.60
2008,08,13,11,26,20.50
2008,08,13,11,27,20.50
2008,08,13,11,28,20.50
2008,08,13,11,29,20.50
2008,08,13,11,30,20.50
2008,08,13,11,31,20.60
2008,08,13,11,32,20.60
2008,08,13,11,33,20.50
2008,08,13,11,34,20.40
2008,08,13,11,35,20.30
2008,08,13,11,36,20.20
2008,08,13,11,37,20.20
2008,08,13,11,38,20.20
2008,08,13,11,39,20.20
2008,08,13,11,40,20.20
2008,08,13,11,41,20.30
2008,08,13,11,42,20.30
2008,08,13,11,43,20.30
2008,08,13,11,44,20.20
2008,08,13,11,45,20.20
2008,08,13,11,46,20.20
2008,08,13,11,47,20.20
2008,08,13,11,48,20.30
2008,08,13,11,49,20.40
2008,08,13,11,50,20.50
2008,08,13,11,51,20.50
2008,08,13,11,52,20.60
2008,08,13,11,53,20.70
2008,08,13,11,54,20.80
2008,08,13,11,55,20.80
2008,08,13,11,56,20.90
2008,08,13,11,57,21.00
2008,08,13,11,58,21.00
2008,08,13,11,59,21.00
2008,08,13,12,00,21.10
2008,08,13,12,01,21.10
2008,08,13,12,02,21.10
2008,08,13,12,03,21.10
2008,08,13,12,04,21.10
2008,08,13,12,05,21.20
2008,08,13,12,06,21.20
2008,08,13,12,07,21.10
2008,08,13,12,08,21.10
2008,08,13,12,09,21.00
2008,08,13,12,10,21.00
2008,08,13,12,11,21.00
2008,08,13,12,12,21.10
2008,08,13,12,13,21.10
2008,08,13,12,14,21.10
2008,08,13,12,15,21.20
2008,08,13,12,16,21.20
2008,08,13,12,17,21.20
2008,08,13,12,18,21.20
2008,08,13,12,19,21.20
2008,08,13,12,20,21.20
2008,08,13,12,21,21.20
2008,08,13,12,22,21.20
2008,08,13,12,23,21.20
2008,08,13,12,24,21.20
2008,08,13,12,25,21.20
2008,08,13,12,26,21.20
2008,08,13,12,27,21.30
2008,08,13,12,28,21.40
2008,08,13,12,29,21.60
2008,08,13,12,30,21.70
2008,08,13,12,31,21.80
2008,08,13,12,32,21.90
2008,08,13,12,33,21.90
2008,08,13,12,34,21.90
2008,08,13,12,35,21.90
2008,08,13,12,36,21.90
2008,08,13,12,37,21.90
2008,08,13,12,38,22.00
2008,08,13,12,39,22.10
2008,08,13,12,40,22.10
2008,08,13,12,41,22.20
2008,08,13,12,42,22.30
2008,08,13,12,43,22.40
2008,08,13,12,44,22.40
2008,08,13,12,45,22.50
2008,08,13,12,46,22.50
2008,08,13,12,47,22.40
2008,08,13,12,48,22.40
2008,08,13,12,49,22.40
2008,08,13,12,50,22.50
2008,08,13,12,51,22.50
2008,08,13,12,52,22.50
2008,08,13,12,53,22.50
2008,08,13,12,54,22.40
2008,08,13,12,55,22.40
2008,08,13,12,56,22.40
2008,08,13,12,57,22.40
2008,08,13,12,58,22.40
2008,08,13,12,59,22.50
2008,08,13,13,00,22.50
2008,08,13,13,01,22.50
2008,08,13,13,02,22.50
2008,08,13,13,03,22.60
2008,08,13,13,04,22.60
2008,08,13,13,05,22.60
2008,08,13,13,06,22.70
2008,08,13,13,07,22.70
2008,08,13,13,08,22.60
2008,08,13,13,09,22.60
2008,08,13,13,10,22.60
2008,08,13,13,11,22.50
2008,08,13,13,12,22.50
2008,08,13,13,13,22.50
2008,08,13,13,14,22.60
2008,08,13,13,15,22.60
2008,08,13,13,16,22.70
2008,08,13,13,17,22.80
2008,08,13,13,18,22.90
2008,08,13,13,19,23.00
2008,08,13,13,20,23.10
2008,08,13,13,21,23.10
2008,08,13,13,22,23.10
2008,08,13,13,23,23.10
2008,08,13,13,24,23.20
2008,08,13,13,25,23.20
2008,08,13,13,26,23.20
2008,08,13,13,27,23.20
2008,08,13,13,28,23.20
2008,08,13,13,29,23.10
2008,08,13,13,30,23.10
2008,08,13,13,31,23.20
2008,08,13,13,32,23.20
2008,08,13,13,33,23.20
2008,08,13,13,34,23.10
2008,08,13,13,35,23.20
2008,08,13,13,36,23.30
2008,08,13,13,37,23.30
2008,08,13,13,38,23.30
2008,08,13,13,39,23.30
2008,08,13,13,40,23.30
2008,08,13,13,41,23.20
2008,08,13,13,42,23.20
2008,08,13,13,43,23.30
2008,08,13,13,44,23.30
2008,08,13,13,45,23.30
2008,08,13,13,46,23.30
2008,08,13,13,47,23.30
2008,08,13,13,48,23.30
2008,08,13,13,49,23.30
2008,08,13,13,50,23.30
2008,08,13,13,51,23.30
2008,08,13,13,52,23.20
2008,08,13,13,53,23.20
2008,08,13,13,54,23.20
2008,08,13,13,55,23.20
2008,08,13,13,56,23.30
2008,08,13,13,57,23.30
2008,08,13,13,58,23.40
2008,08,13,13,59,23.40
2008,08,13,14,00,23.40
2008,08,13,14,01,23.40
2008,08,13,14,02,23.50
2008,08,13,14,03,23.60
2008,08,13,14,04,23.60
2008,08,13,14,05,23.70
2008,08,13,14,06,23.70
2008,08,13,14,07,23.70
2008,08,13,14,08,23.70
2008,08,13,14,09,23.70
2008,08,13,14,10,23.60
2008,08,13,14,11,23.50
2008,08,13,14,12,23.40
2008,08,13,14,13,23.30
2008,08,13,14,14,23.30
2008,08,13,14,15,23.30
2008,08,13,14,16,23.40
2008,08,13,14,17,23.50
2008,08,13,14,18,23.60
2008,08,13,14,19,23.60
2008,08,13,14,20,23.60
2008,08,13,14,21,23.60
2008,08,13,14,22,23.50
2008,08,13,14,23,23.40
2008,08,13,14,24,23.30
2008,08,13,14,25,23.40
2008,08,13,14,26,23.50
2008,08,13,14,27,23.60
2008,08,13,14,28,23.70
2008,08,13,14,29,23.80
2008,08,13,14,30,23.90
2008,08,13,14,31,24.00
2008,08,13,14,32,24.10
2008,08,13,14,33,24.10
2008,08,13,14,34,24.10
2008,08,13,14,35,24.10
2008,08,13,14,36,24.10
2008,08,13,14,37,24.10
2008,08,13,14,38,24.10
2008,08,13,14,39,24.10
2008,08,13,14,40,24.10
2008,08,13,14,41,24.10
2008,08,13,14,42,24.20
2008,08,13,14,43,24.30
2008,08,13,14,44,24.30
2008,08,13,14,45,24.30
2008,08,13,14,46,24.30
2008,08,13,14,47,24.20
2008,08,13,14,48,24.30
2008,08,13,14,49,24.20
2008,08,13,14,50,24.30
2008,08,13,14,51,24.20
2008,08,13,14,52,24.20
2008,08,13,14,53,24.20
2008,08,13,14,54,24.20
2008,08,13,14,55,24.20
2008,08,13,14,56,24.20
2008,08,13,14,57,24.20
2008,08,13,14,58,24.30
2008,08,13,14,59,24.30
2008,08,13,15,00,24.40
2008,08,13,15,01,24.50
2008,08,13,15,02,24.60
2008,08,13,15,03,24.80
2008,08,13,15,04,24.80
2008,08,13,15,05,24.70
2008,08,13,15,06,24.80
2008,08,13,15,07,24.90
2008,08,13,15,08,25.00
2008,08,13,15,09,25.00
2008,08,13,15,10,25.10
2008,08,13,15,11,25.10
2008,08,13,15,12,25.20
2008,08,13,15,13,25.30
2008,08,13,15,14,25.40
2008,08,13,15,15,25.60
2008,08,13,15,16,25.60
2008,08,13,15,17,25.60
2008,08,13,15,18,25.50
2008,08,13,15,19,25.40
2008,08,13,15,20,25.30
2008,08,13,15,21,25.20
2008,08,13,15,22,25.20
2008,08,13,15,23,25.20
2008,08,13,15,24,25.20
2008,08,13,15,25,25.10
2008,08,13,15,26,25.10
2008,08,13,15,27,25.10
2008,08,13,15,28,25.20
2008,08,13,15,29,25.20
2008,08,13,15,30,25.30
2008,08,13,15,31,25.40
2008,08,13,15,32,25.50
2008,08,13,15,33,25.60
2008,08,13,15,34,25.60
2008,08,13,15,35,25.60
2008,08,13,15,36,25.70
2008,08,13,15,37,25.70
2008,08,13,15,38,25.70
2008,08,13,15,39,25.70
2008,08,13,15,40,25.60
2008,08,13,15,41,25.40
2008,08,13,15,42,25.40
2008,08,13,15,43,25.40
2008,08,13,15,44,25.40
2008,08,13,15,45,25.40
2008,08,13,15,46,25.20
2008,08,13,15,47,25.20
2008,08,13,15,48,25.20
2008,08,13,15,49,25.20
2008,08,13,15,50,25.30
2008,08,13,15,51,25.30
2008,08,13,15,52,25.40
2008,08,13,15,53,25.30
2008,08,13,15,54,25.10
2008,08,13,15,55,25.00
2008,08,13,15,56,24.80
2008,08,13,15,57,24.80
2008,08,13,15,58,24.80
2008,08,13,15,59,24.90
2008,08,13,16,00,25.00
2008,08,13,16,01,25.00
2008,08,13,16,02,25.00
2008,08,13,16,03,24.90
2008,08,13,16,04,25.00
2008,08,13,16,05,25.00
2008,08,13,16,06,25.00
2008,08,13,16,07,25.00
2008,08,13,16,08,25.00
2008,08,13,16,09,25.00
2008,08,13,16,10,25.10
2008,08,13,16,11,25.20
2008,08,13,16,12,25.30
2008,08,13,16,13,25.40
2008,08,13,16,14,25.40
2008,08,13,16,15,25.50
2008,08,13,16,16,25.60
2008,08,13,16,17,25.70
2008,08,13,16,18,25.80
2008,08,13,16,19,25.80
2008,08,13,16,20,25.90
2008,08,13,16,21,26.00
2008,08,13,16,22,26.00
2008,08,13,16,23,25.90
2008,08,13,16,24,25.80
2008,08,13,16,25,25.80
2008,08,13,16,26,25.80
2008,08,13,16,27,25.90
2008,08,13,16,28,25.90
2008,08,13,16,29,25.90
2008,08,13,16,30,25.90
2008,08,13,16,31,25.80
2008,08,13,16,32,25.80
2008,08,13,16,33,25.80
2008,08,13,16,34,25.90
2008,08,13,16,35,26.00
2008,08,13,16,36,26.00
2008,08,13,16,37,26.00
2008,08,13,16,38,26.00
2008,08,13,16,39,25.90
2008,08,13,16,40,25.80
2008,08,13,16,41,25.80
2008,08,13,16,42,25.80
2008,08,13,16,43,25.70
2008,08,13,16,44,25.70
2008,08,13,16,45,25.70
2008,08,13,16,46,25.70
2008,08,13,16,47,25.70
2008,08,13,16,48,25.80
2008,08,13,16,49,25.80
2008,08,13,16,50,25.80
2008,08,13,16,51,25.80
2008,08,13,16,52,25.90
2008,08,13,16,53,25.90
2008,08,13,16,54,25.80
2008,08,13,16,55,25.90
2008,08,13,16,56,25.90
2008,08,13,16,57,25.90
2008,08,13,16,58,25.90
2008,08,13,16,59,26.00
2008,08,13,17,00,26.00
2008,08,13,17,01,25.90
2008,08,13,17,02,25.90
2008,08,13,17,03,25.90
2008,08,13,17,04,25.90
2008,08,13,17,05,25.90
2008,08,13,17,06,25.90
2008,08,13,17,07,25.90
2008,08,13,17,08,25.90
2008,08,13,17,09,25.90
2008,08,13,17,10,25.90
2008,08,13,17,11,25.90
2008,08,13,17,12,25.80
2008,08,13,17,13,25.80
2008,08,13,17,14,25.80
2008,08,13,17,15,25.70
2008,08,13,17,16,25.70
2008,08,13,17,17,25.60
2008,08,13,17,18,25.60
2008,08,13,17,19,25.50